Savannah Hunter, GA

12:29 PM EDT on April 19, 2018 (GMT -0400)
Hunter Army Air Field

Weather History for KSVN - January, 2014

Change the Weather History Date:

Sunday, January 12, 2014

  Actual Average Record
Temperature  
Mean Temperature 54 °F -  
Max Temperature 64 °F 59 °F 79 °F (2013)
Min Temperature 41 °F 37 °F 25 °F (2011)
Degree Days  
Heating Degree Days 12    
Growing Degree Days 4 (Base 50)    
Moisture  
Dew Point 37 °F    
Average Humidity 60    
Maximum Humidity 95    
Minimum Humidity 27    
Precipitation  
Precipitation 0.01 in - - ()
Sea Level Pressure  
Sea Level Pressure 30.12 in    
Wind  
Wind Speed 9 mph (WNW)    
Max Wind Speed 16 mph    
Max Gust Speed 26 mph    
Visibility 10 miles    
Events      
Averages and records for this station are not official NWS values.
T = Trace of Precipitation, MM = Missing Value Source: NWS Daily Summary

Daily Weather History Graph

Daily Weather History Graph

Search for Another Location

Airport or City:

Astronomy

Jan. 12, 2014 Rise Set
Actual Time 7:25 AM EST 5:40 PM EST
Civil Twilight 6:59 AM EST 6:06 PM EST
Nautical Twilight 6:29 AM EST 6:36 PM EST
Astronomical Twilight 5:59 AM EST 7:06 PM EST
Moon 3:05 PM EST (1/12) 4:24 AM EST (1/12)
Length of Visible Light 11h 07m
Length of Day
10h 14m
Waxing Gibbous, 89% of the Moon is Illuminated
Jan 12
Waxing Gibbous
Jan 15
Full
Jan 24
Last Quarter
Jan 30
New
Feb 6
First Quarter

Hourly Weather History & Observations

Time (EST) Temp. Windchill Dew Point Humidity Pressure Visibility Wind Dir Wind Speed Gust Speed Precip Events Conditions
12:58 AM 59.7 °F - 46.0 °F 61% 29.89 in 10.0 mi NW 16.1 mph 26.5 mph 0.01 in   Overcast
1:58 AM 55.9 °F - 41.0 °F 57% 29.92 in 10.0 mi WNW 12.7 mph - N/A   Clear
2:58 AM 53.2 °F - 40.3 °F 61% 29.96 in 10.0 mi WNW 11.5 mph - N/A   Clear
3:58 AM 51.3 °F - 39.9 °F 65% 29.99 in 10.0 mi WNW 9.2 mph - N/A   Clear
4:58 AM 50.0 °F - 39.4 °F 67% 30.01 in 10.0 mi WNW 9.2 mph - N/A   Clear
5:58 AM 44.2 °F 39.2 °F 38.1 °F 79% 30.04 in 10.0 mi West 9.2 mph - N/A   Clear
6:58 AM 45.3 °F 41.1 °F 38.7 °F 78% 30.07 in 10.0 mi West 8.1 mph - N/A   Clear
7:58 AM 43.0 °F 39.5 °F 38.7 °F 85% 30.10 in 10.0 mi West 5.8 mph - N/A   Clear
8:58 AM 49.5 °F - 39.9 °F 70% 30.16 in 10.0 mi WNW 10.4 mph - N/A   Clear
9:58 AM 54.1 °F - 39.7 °F 58% 30.19 in 10.0 mi NW 9.2 mph - N/A   Clear
10:58 AM 57.2 °F - 36.5 °F 46% 30.20 in 10.0 mi WNW 8.1 mph - N/A   Clear
11:58 AM 60.1 °F - 33.6 °F 37% 30.17 in 10.0 mi NNW 5.8 mph - N/A   Clear
12:58 PM 62.4 °F - 32.7 °F 33% 30.15 in 10.0 mi NW 8.1 mph - N/A   Clear
1:58 PM 64.0 °F - 30.2 °F 28% 30.13 in 10.0 mi NW 10.4 mph - N/A   Clear
2:58 PM 64.2 °F - 29.8 °F 27% 30.13 in 10.0 mi NW 11.5 mph - N/A   Clear
3:58 PM 64.0 °F - 31.1 °F 29% 30.14 in 10.0 mi NW 10.4 mph - N/A   Clear
4:58 PM 62.2 °F - 31.3 °F 31% 30.15 in 10.0 mi WNW 5.8 mph - N/A   Clear
5:58 PM 54.3 °F - 36.1 °F 50% 30.17 in 10.0 mi West 2.3 mph - N/A   Clear
6:58 PM 50.7 °F - 35.4 °F 56% 30.19 in 10.0 mi Calm Calm - N/A   Clear
7:58 PM 50.7 °F - 38.3 °F 62% 30.21 in 10.0 mi SSE 4.6 mph - N/A   Clear
8:58 PM 45.1 °F - 39.2 °F 80% 30.21 in 10.0 mi Calm Calm - N/A   Clear
9:58 PM 43.0 °F - 39.2 °F 86% 30.22 in 10.0 mi Calm Calm - N/A   Clear
10:58 PM 43.3 °F - 40.1 °F 88% 30.22 in 10.0 mi Calm Calm - N/A   Clear
11:58 PM 41.0 °F - 39.6 °F 95% 30.21 in 10.0 mi Calm Calm - N/A   Clear